Home > Weather > Anderson > Past weeks

Flag for U.S.A. Weather for the Past 2 Weeks in Anderson, South Carolina, U.S.A.

Now
26 °F

Passing clouds.


Feels Like: 18 °F
Forecast: 24 / 38 °F
Wind: 7 mph from East

Location: Anderson County Airport

Current Time: Feb 14, 2016 at 4:12:46 AM

Latest Report: Feb 14, 2016 at 3:56 AM


Visibility: 10 mi

Pressure: 30.40 "Hg

Humidity: 42%

Dew point: 6 °F

Location of AndersonLocation

Historic Weather in Anderson — Graph

°F

Anderson Temperature Yesterday

Maximum temperature yesterday: 47 °F (at 3:56 PM)
Minimum temperature yesterday: 28 °F (at 10:56 PM)
Average temperature yesterday: 37 °F

High & Low Weather Summary for the Past Weeks

 TemperatureHumidityPressure
High68 °F (Feb 1, 2:56 PM)100% (Feb 1, 11:56 PM)30.42 "Hg (Feb 1, 11:56 PM)
Low23 °F (Feb 11, 6:56 AM)11% (Feb 13, 3:56 PM)29.67 "Hg (Feb 8, 3:56 PM)
Average44 °F58%30.06 "Hg
* Reported Jan 30 2:56 AM — Feb 14 2:56 AM, Anderson, Weather by CustomWeather, © 2016

Note: Actual official high and low records may vary slightly from our data, if they occured in-between our weather recording intervals... More about our weather records

Advertising

Anderson Weather History for the Previous 24 Hours

 ConditionsComfort  
Time TempWeatherWind HumidityBarometerVisibility
2:56 AM
Sun, Feb 14
26 °FClear.9 mph40%30.37 "Hg10 mi
1:56 AM27 °FClear.8 mph39%30.37 "Hg10 mi
12:56 AM27 °FClear.8 mph39%30.37 "Hg10 mi
11:56 PM
Sat, Feb 13
28 °FClear.8 mph39%30.37 "Hg10 mi
10:56 PM28 °FClear.7 mph41%30.38 "Hg10 mi
9:56 PM31 °FClear.3 mph38%30.38 "Hg10 mi
8:56 PM33 °FClear.7 mph33%30.37 "Hg10 mi
7:56 PM36 °FClear.9 mph31%30.34 "Hg10 mi
6:56 PM40 °FClear.No wind27%30.31 "Hg10 mi
5:56 PM43 °FSunny.6 mph24%30.28 "Hg10 mi
4:56 PM46 °FSunny.10 mph20%30.26 "Hg10 mi
3:56 PM47 °FSunny.13 mph11%30.24 "Hg10 mi
2:56 PM46 °FSunny.12 mph14%30.25 "Hg10 mi
1:56 PM45 °FSunny.7 mph19%30.26 "Hg10 mi
12:56 PM43 °FSunny.No wind28%30.29 "Hg10 mi
11:56 AM40 °FSunny.No wind32%30.31 "Hg10 mi
10:56 AM39 °FSunny.3 mph36%30.31 "Hg10 mi
9:56 AM37 °FSunny.9 mph46%30.29 "Hg10 mi
8:56 AM35 °FSunny.5 mph46%30.27 "Hg10 mi
7:56 AM32 °FSunny.6 mph52%30.22 "Hg10 mi
6:56 AM31 °FClear.8 mph57%30.20 "Hg10 mi
5:56 AM32 °FClear.9 mph56%30.17 "Hg10 mi
4:56 AM33 °FClear.10 mph61%30.14 "Hg10 mi
Weather by CustomWeather, © 2016

See weather overviewHow to use our weather pages